Regional Weather Roundup
Issued by NWS

Home | Current Version | Previous Version | Graphics & Text | Print | Product List | Glossary On
Versions: 1 2 3 4 5 6 7 8 9 10 11 12 13 14 15 16 17 18 19 20 21 22 23 24 25 26 27 28 29 30 31 32 33 34 35 36 37 38 39 40 41 42 43 44 45 46 47 48 49 50
000
ASUS43 KMPX 312210
RWRMN
WEATHER ROUNDUP FOR MINNESOTA
NATIONAL WEATHER SERVICE TWIN CITIES/CHANHASSEN MN
500 PM CDT THU JUL 31 2014


NOTE: "FAIR" INDICATES FEW OR NO CLOUDS BELOW 12,000 FEET WITH NO
SIGNIFICANT WEATHER AND/OR OBSTRUCTIONS TO VISIBILITY. N/A MEANS
CURRENT SKY AND/OR WEATHER CONDITIONS ARE NOT AVAILABLE.

MNZ060>063-068>070-312300-
   Twin Cities Metro

CITY           SKY/WX    TMP DP  RH WIND       PRES   REMARKS
TWIN CITIES    MOSUNNY   83  52  34 W7        30.00F
ST PAUL        MOSUNNY   82  54  37 W8        29.99F
CRYSTAL        SUNNY     83  53  35 W10       29.99F
BLAINE         MOSUNNY   82  55  39 W9        30.00F
LAKEVILLE      SUNNY     79  57  47 W8        30.01F
EDEN PRAIRIE   SUNNY     81  55  40 W6        30.00F
SOUTH ST PAUL  SUNNY     82  50  32 W8        30.00S
LAKE ELMO      FAIR      81  59  47 W7        30.00F
$$
MNZ001>005-007-008-013>017-022>024-027-028-312300-
   Northwest Minnesota

CITY           SKY/WX    TMP DP  RH WIND       PRES   REMARKS
BEMIDJI        MOSUNNY   78  59  51 NW7       30.02S
HALLOCK        SUNNY     81  61  50 N7        30.00S
ROSEAU           N/A     81  59  47 W6        30.00S
WARROAD        SUNNY     81  59  47 NW8       30.00S
THIEF RVR FALL MOSUNNY   79  59  50 NW9       30.02S
CROOKSTON      MOSUNNY   81  61  50 NW9       30.01F
FOSSTON        MOSUNNY   79  63  57 NW8       30.03S
DETROIT LAKES  SUNNY     79  57  47 N8        30.05S
MOORHEAD       SUNNY     81  57  44 N8        30.03S
PARK RAPIDS    MOSUNNY   80  58  46 W15G21    30.02S
$$
MNZ006-009>011-018-025>026-312300-
   North Central Minnesota

CITY           SKY/WX    TMP DP  RH WIND       PRES   REMARKS
BAUDETTE       SUNNY     78  54  43 N8        30.01S
FLAG ISLAND    SUNNY     77  54  44 N6        29.98S
INTL FALLS     SUNNY     77  54  44 NW9       29.99R
WASKISH        SUNNY     79  59  50 CALM      30.01R
BIG FORK       SUNNY    N/A N/A N/A N3        30.00S
LONGVILLE      SUNNY     79  61  53 CALM      30.01R
GRAND RAPIDS   PTSUNNY   79  57  47 NW10      30.00S
CRANE LAKE     SUNNY     73  52  46 NW6       30.00S
ORR            SUNNY     75  50  41 NW3       29.97S
COOK           SUNNY     75  54  46 NW6       29.99S
$$
MNZ012-019>021-037-312300-
   Northeast Minnesota

CITY           SKY/WX    TMP DP  RH WIND       PRES   REMARKS
DULUTH         MOSUNNY   79  53  40 NW12      29.98S
ELY            SUNNY     73  48  40 NW9       29.98S
HIBBING        SUNNY     80  55  42 NW8       29.99S
EVELETH        MOSUNNY   77  52  41 W7        30.00S
DULUTH HARBOR  SUNNY     81  57  44 NW10      29.95S
TWO HARBORS    SUNNY     79  54  41 NW6       29.94S
SILVER BAY     SUNNY     77  57  50 CALM      29.94R
GRAND MARAIS     N/A     57  51  80 SW7       29.93S
G MARAIS ARPRT SUNNY     72  45  37 NW6       29.98S
$$
MNZ029>031-032-039>041-046>048-054>057-064-312300-
   West Central Minnesota

CITY           SKY/WX    TMP DP  RH WIND       PRES   REMARKS
FERGUS FALLS   SUNNY     81  55  41 NW5       30.01F
WHEATON        SUNNY     77  57  50 CALM      30.05S
MORRIS         SUNNY     81  57  44 NW3       30.03S
ALEXANDRIA     SUNNY     80  56  43 VRB7      30.05F
ELBOW LAKE     FAIR      78  59  51 NW7       30.04S
WADENA         SUNNY     79  59  50 W6        30.03S
GLENWOOD       MOSUNNY   81  52  36 NW5       30.05S
APPLETON       SUNNY     82  52  34 NW7       30.03S
BENSON         MOSUNNY   81  57  44 N5        30.03F
ORTONVILLE     SUNNY     81  54  39 N6        30.04S
MADISON        SUNNY     82  55  39 N3        30.04S
WILLMAR        FAIR      81  52  36 NW6       30.04F
$$
MNZ033>034-036-042>043-049>051-058-059-312300-
   Central Minnesota

CITY           SKY/WX    TMP DP  RH WIND       PRES   REMARKS
ST CLOUD       MOSUNNY   84  54  35 NW7       30.00F
SAUK CENTRE    FAIR      80  54  41 W5        30.04S
PAYNESVILLE    SUNNY     79  50  35 W8        30.04S HAZE
AITKIN         SUNNY     82  63  51 NW5       29.98F
PINE RIVER     SUNNY     81  59  47 W9        30.03S
BRAINERD       SUNNY     80  57  45 W10       30.00F
STAPLES        SUNNY     81  55  41 NW9       30.02S
LONG PRAIRIE   FAIR      79  57  47 W6        30.04S
LITTLE FALLS   SUNNY     81  54  39 W9        30.02S
LITCHFIELD     SUNNY     81  55  41 W7        30.03F
BUFFALO        SUNNY     81  53  38 SW7       30.02F
MAPLE LAKE     SUNNY     81  58  45 W6        30.02F
$$
MNZ037-044-045-052-053-312300-
   East Central Minnesota

CITY           SKY/WX    TMP DP  RH WIND       PRES   REMARKS
PRINCETON      SUNNY     84  57  39 W7        30.00F
MORA           SUNNY     77  57  50 W7        30.01S
CAMBRIDGE      MOSUNNY   84  61  45 W9        29.98S
RUSH CITY      SUNNY     80  59  48 W8        29.99S
MOOSE LAKE     SUNNY     79  61  53 NW5       29.96F
HINCKLEY       FAIR      81  63  54 W8        29.98S
CLOQUET        SUNNY     79  54  41 NW8       29.98S
MCGREGOR       SUNNY     79  59  50 NW9       29.99S
$$
MNZ071>073-080-081-089-090-097-098-312300-
   Southwest Minnesota

CITY           SKY/WX    TMP DP  RH WIND       PRES   REMARKS
MONTEVIDEO     MOSUNNY   84  55  37 NW8       30.04F
GRANITE FALLS  SUNNY     81  57  43 W6        30.05F
CANBY          MOSUNNY   81  53  38 N3        30.05F
MARSHALL       SUNNY     81  52  36 N6        30.04F
REDWOOD FALLS  MOSUNNY   83  53  35 NW7       30.02F
OLIVIA         MOSUNNY   79  54  41 NW5       30.03F
PIPESTONE      SUNNY     81  48  32 N8        30.06S
WINDOM         MOSUNNY   79  55  44 CALM      30.05S
WORTHINGTON    SUNNY     75  57  53 SW6       30.07S
JACKSON        MOSUNNY   77  55  47 CALM      30.05F
TRACY          SUNNY     80  55  41 N5        30.04F
SLAYTON        CLOUDY    79  55  42 CALM      30.06S
$$
MNZ065>067-074>077-082>085-091>093-312300-
   South Central Minnesota

CITY           SKY/WX    TMP DP  RH WIND       PRES   REMARKS
MANKATO        SUNNY     81  52  36 NW9       30.03F
NEW ULM        SUNNY     81  54  39 N3        30.03F
ST JAMES       SUNNY     86  52  30 N5        30.04F
FAIRMONT       MOSUNNY   82  55  39 NE3       30.04F
GLENCOE        SUNNY     81  50  34 W7        30.02F
FARIBAULT      MOSUNNY   84  46  26 W10       30.03F
OWATONNA       SUNNY     81  54  39 W7        30.04S
WASECA         SUNNY     77  50  38 CALM      30.05F
ALBERT LEA     SUNNY     81  52  36 W6        30.04F
$$
MNZ078>079-086>088-094>096-312300-
   Southeast Minnesota

CITY           SKY/WX    TMP DP  RH WIND       PRES   REMARKS
ROCHESTER      SUNNY     79  56  45 W9        30.05F
RED WING       MOSUNNY   82  54  36 W8        29.98F
STANTON        PTSUNNY   81  55  40 W10       30.00F
DODGE CENTER   SUNNY     79  54  41 W8        30.04F
WINONA         SUNNY     81  55  41 NW6       30.01F
AUSTIN         MOSUNNY   79  52  38 CALM      30.04F
PRESTON        MOSUNNY   77  61  58 W7        30.05S
$$
ABBREVIATIONS USED IN REMARKS
   TC - TEMPERATURES IN CELSIUS
  WCI - WIND CHILL INDEX
   HX - HEAT INDEX
  VSB - VISIBILITY
$$



USA.gov is the U.S. government's official web portal to all federal, state and local government web resources and services.